Regional Weather Roundup
Issued by NWS

Home | Current Version | Previous Version | Graphics & Text | Print | Product List | Glossary On
Versions: 1 2 3 4 5 6 7 8 9 10 11 12 13 14 15 16 17 18 19 20 21 22 23 24 25 26 27 28 29 30 31 32 33 34 35 36 37 38 39 40 41 42 43 44 45 46 47 48 49 50
000
ASUS43 KDMX 230107
RWRIA

WEATHER ROUNDUP FOR IOWA
NATIONAL WEATHER SERVICE DES MOINES IA
800 PM CDT FRI AUG 22 2014

NOTE: "FAIR" INDICATES FEW OR NO CLOUDS BELOW 12,000 FEET WITH NO
SIGNIFICANT WEATHER AND/OR OBSTRUCTIONS TO VISIBILITY.

* - THESE STATIONS ARE NOT NWS STATIONS...THUS NOT UNDER NWS
QUALITY CONTROL.  THEY ALSO DO NOT REPORT WEATHER SUCH
AS PRECIPITATION OR FOG.

IAZ001>003-012>014-020>022-031>034-043>046-230200-
   NORTHWEST IOWA

CITY           SKY/WX    TMP DP  RH WIND       PRES   REMARKS
CARROLL *      PTCLDY    75  73  94 N3        29.96R
CHEROKEE *     MOCLDY    81  75  83 NE5       29.98R HX  86
DENISON *      CLEAR     73  73 100 S5        29.94S
LE MARS *      CLEAR     79  73  83 NE7G13    29.97R HX  82
ORANGE CITY *  CLEAR     79  70  73 E5        29.98R HX  81
SHELDON *      CLEAR     75  72  88 E5        29.98R
SIOUX CITY     MOCLDY    83  75  77 E9        29.93R HX  90
SPENCER        CLOUDY    79  72  79 NE6       29.98R HX  82
STORM LAKE *   PTCLDY    79  79 100 E6        29.99R HX  83
$$

IAZ055>058-069>071-079>083-090>094-230200-
   SOUTHWEST IOWA

CITY           SKY/WX    TMP DP  RH WIND       PRES   REMARKS
ATLANTIC *     CLEAR     77  75  94 CALM      29.93R
AUDUBON *      LGT RAIN  75  73  94 CALM      29.97R
CLARINDA *     CLEAR     79  75  89 CALM      29.95R HX  82
COUNCIL BLFS * CLEAR     77  77 100 CALM      29.93S
CRESTON *      CLEAR     79  75  89 CALM      29.96R HX  82
HARLAN  *      CLOUDY    77  77 100 E3        29.98R
LAMONI         CLOUDY    79  76  90 N5        29.94R HX  83
RED OAK *      CLEAR     79  73  83 S6        29.93R HX  82
SHENANDOAH *   CLEAR     79  73  83 CALM      29.94R HX  82
$$

IAZ047>049-059>061-072>074-084-230200-
   CENTRAL IOWA

CITY           SKY/WX    TMP DP  RH WIND       PRES   REMARKS
AMES           CLOUDY    81  77  88 CALM      29.93S FOG     HX  88
ANKENY *       MOCLDY    84  79  84 CALM      29.93R HX  96
CHARITON *     CLEAR     82  77  83 CALM      29.94R HX  91
DES MOINES     CLOUDY    82  74  76 CALM      29.93R HX  88
GRINNELL*      CLOUDY    79  73  83 E5        29.95R HX  82
KNOXVILLE *    CLEAR     82  77  83 S5        29.93R HX  91
MARSHALLTOWN   CLOUDY    81  76  84 CALM      29.93S HX  87
PELLA *        MOCLDY    82  79  89 CALM      29.94R HX  93
PERRY *        DRIZZLE   77  75  94 CALM      29.95R
$$

IAZ004>006-015-016-023>025-035-036-230200-
   NORTH CENTRAL IOWA

CITY           SKY/WX    TMP DP  RH WIND       PRES   REMARKS
ALGONA *       CLEAR     79  75  89 NE6       29.98R HX  82
CLARION *      MOCLDY    79  77  94 CALM      29.97R HX  83
ESTHERVILLE    MOCLDY    77  71  82 N6        29.99R
FORT DODGE *   CLOUDY    79  73  83 S8        29.98R THUNDER HX  82
MASON CITY     MOCLDY    79  73  82 NE5       29.98R HX  82
FOREST CITY *  CLEAR     79  73  83 N3        29.97R HX  82
IOWA FALLS *     N/A     79  73  83 CALM      29.97R HX  82
$$

IAZ007>011-017>019-026>030-037>042-050>054-066-230200-
   NORTHEAST IOWA

CITY           SKY/WX    TMP DP  RH WIND       PRES   REMARKS
CEDAR RAPIDS   MOCLDY    78  76  93 S3        29.94R HX  81
CHARLES CITY * CLEAR     79  75  89 CALM      29.97R HX  82
CLINTON *      CLOUDY    81  75  83 S7        29.98R HX  86
DECORAH *      CLEAR     81  75  83 CALM      29.95R HX  86
DUBUQUE        MOCLDY    79  78  97 S6        29.96R FOG     HX  83
MONTICELLO *   PTCLDY    81  79  94 CALM      29.94R HX  89
OELWEIN *      MOCLDY    79  75  89 CALM      29.96R HX  82
WATERLOO       MOCLDY    77  71  82 CALM      29.94R
$$

IAZ064-065-067-068-078-230200-
   EAST CENTRAL IOWA

CITY           SKY/WX    TMP DP  RH WIND       PRES   REMARKS
DAVENPORT      PTCLDY    80  73  79 SW5       29.95R HX  84
IOWA CITY      PTCLDY    80  77  90 CALM      29.95R HX  87
MT. PLEASANT * PTCLDY    82  75  78 CALM      29.94R HX  89
MUSCATINE *    PTCLDY    84  79  84 CALM      29.93R HX  96
QUAD CITIES    PTCLDY    81  75  82 SW3       29.94R HX  87
$$

IAZ062-063-075>077-085>089-095>099-230200-
   SOUTHEAST IOWA

CITY           SKY/WX    TMP DP  RH WIND       PRES   REMARKS
BURLINGTON     MOCLDY    80  78  94 CALM      29.94R HX  88
FAIRFIELD *    MOCLDY    81  77  89 SE3       29.94S HX  88
FORT MADISON * PTCLDY    82  79  89 CALM      29.95S HX  93
KEOKUK *       CLEAR     82  79  89 CALM      29.93R HX  93
OSKALOOSA *      N/A     81  79  94 E3        29.93S HX  89
CENTERVILLE *  CLEAR     81  81 100 CALM      29.96R HX  91
OTTUMWA        PTCLDY    80  77  90 E3        29.92S HX  87
WASHINGTON *   PTCLDY    81  79  94 CALM      29.94S HX  89
$$

ABBREVIATIONS USED IN REMARKS
   TC - TEMPERATURES IN CELSIUS
  WCI - WIND CHILL INDEX
   HX - HEAT INDEX
  VSB - VISIBILITY
$$




USA.gov is the U.S. government's official web portal to all federal, state and local government web resources and services.